Regional Weather Roundup
Issued by NWS Bismarck, ND

Home | Current Version | Previous Version | Text Only | Print | Product List | Glossary On
Versions: 1 2 3 4 5 6 7 8 9 10 11 12 13 14 15 16 17 18 19 20 21 22 23 24 25 26 27 28 29 30 31 32 33 34 35 36 37 38 39 40 41 42 43 44 45 46 47 48 49 50
000
ASUS43 KBIS 210610
RWRBIS

NWR BROADCAST TEXT
NATIONAL WEATHER SERVICE BISMARCK ND
100 AM CDT SAT OCT 21 2017

NOTE: "FAIR" INDICATES FEW OR NO CLOUDS BELOW 12,000 FEET WITH NO
SIGNIFICANT WEATHER AND/OR OBSTRUCTIONS TO VISIBILITY.


CITY           SKY/WX    TMP DP  RH WIND       PRES   REMARKS
WILLISTON        N/A    N/A N/A N/A MISG      29.29R
MINOT          CLEAR     65  50  58 S22G29    29.16R
MINOT AFB      CLEAR     61  49  65 SW17      29.14S
BISMARCK       CLEAR     63  53  70 S12       29.28R
DICKINSON      PTCLDY    57  33  40 NW26G39   29.32R
GARRISON         N/A     61  48  62 SW17      29.22R
HETTINGER ARPT PTCLDY    54  40  59 NW16      29.40R
JAMESTOWN      CLEAR     63  55  75 S15       29.32F
CARRINGTON     FAIR      63  54  72 S20G26    29.30F
HAZEN          FAIR      63  36  36 W16G24    29.28R
LINTON         FAIR      61  50  67 S18G25    29.30S
RUGBY          FAIR      63  54  72 S18       29.19F
STANLEY        FAIR      55  39  54 W25G37    29.23R
TIOGA          FAIR      55  28  35 W37       29.25R
WATFORD CITY   FAIR      55  34  44 W25G35    29.32R
$$

CITY           SKY/WX    TMP DP  RH WIND       PRES   REMARKS
GRAND FORKS    CLOUDY    68  57  68 S18G31    29.36S
GRAND FORKS AF CLOUDY    66  55  66 S20G28    29.35S
DEVILS LAKE    CLEAR     61  53  75 S14G22    29.28F
FARGO          CLOUDY    67  57  70 S24G37    29.40F
CANDO          FAIR      59  59 100 SE16G22   29.26F
CAVALIER       FAIR      64  57  77 S15G22    29.31S
GRAFTON        FAIR      66  55  68 S18G30    29.35S
GWINNER        CLEAR     68  57  68 S16G25    29.39S
LANGDON        FAIR      63  55  77 S21       29.30F
ROLLA          FAIR      48  48 100 S6        29.25F
WALHALLA       FAIR     N/A N/A N/A S17G24    29.29S
$$

CITY           SKY/WX    TMP DP  RH WIND       PRES   REMARKS
ABERDEEN       PTCLDY    66  58  75 S15G25    29.38S
MOBRIDGE       CLEAR     63  53  70 SE13      29.29S
BUFFALO          N/A     54  42  64 W35       29.39R
RAPID CITY     CLOUDY    61  41  47 N32G41    29.44R
GLASGOW        CLOUDY    48  37  65 W22G29    29.42S
SIDNEY         PTCLDY    55  36  48 NW29G37   29.31S
WOLF POINT     CLOUDY    49  42  77 W24G31    29.38F
GLENDIVE       CLOUDY    48  41  76 NW22G32   29.40R
MILES CITY     PTCLDY    47  38  71 W23G32    29.55R
BAKER          PTCLDY    49  38  65 NW23G43   29.48R
$$

CITY           SKY/WX    TMP DP  RH WIND       PRES   REMARKS
BILLINGS       PTCLDY    44  28  53 W21G32    29.66R
GREAT FALLS    CLOUDY    39  27  62 SW16      29.66R
REGINA         CLOUDY    45  32  61 W14       29.21R
ESTEVAN        PTCLDY    48  36  61 W8        29.18R
$$





USA.gov is the U.S. government's official web portal to all federal, state and local government web resources and services.